Regional Weather Roundup
Issued by NWS San Angelo, TX

Home | Current Version | Previous Version | Text Only | Print | Product List | Glossary On
Versions: 1 2 3 4 5 6 7 8 9 10 11 12 13 14 15 16 17 18 19 20 21 22 23 24 25 26 27 28 29 30 31 32 33 34 35 36 37 38 39 40 41 42 43 44 45 46 47 48 49 50
000
ASUS44 KSJT 182010
RWRSJT
WEST CENTRAL TEXAS REGIONAL WEATHER ROUNDUP
NATIONAL WEATHER SERVICE SAN ANGELO TX
200 PM CST THU DEC 18 2014

NOTE: "FAIR" INDICATES FEW OR NO CLOUDS BELOW 12,000 FEET WITH NO
SIGNIFICANT WEATHER AND/OR OBSTRUCTIONS TO VISIBILITY.

TXZ049-054-064>066-071>073-076>078-098-099-113-114-127-128-139-140-
154-155-168>170-182100
...LOCATIONS ACROSS WEST CENTRAL TEXAS...

CITY           SKY/WX    TMP DP  RH WIND       PRES   REMARKS
SAN ANGELO     MOSUNNY   66  37  34 W5        30.05F
ABILENE        SUNNY     65  35  33 N6        30.07F
DYESS AFB      SUNNY     62  33  33 N8        30.06F
JUNCTION       PTSUNNY   67  41  38 N5        30.04F
SWEETWATER     MOSUNNY   62  31  31 CALM      30.10F
BROWNWOOD      MOSUNNY   64  45  48 NW5       30.06S
COLEMAN        PTCLDY    65  42  43 CALM      30.06F
SONORA         CLOUDY    64  43  45 CALM      30.10F
OZONA          FAIR      64  34  32 SE3       30.08F
BRADY          SUNNY     68  41  37 W6        30.05F
$$

TEXAS PANHANDLE/OKLAHOMA PANHANDLE

CITY           SKY/WX    TMP DP  RH WIND       PRES   REMARKS
AMARILLO       MOSUNNY   39  29  67 VRB6      30.08F WCI  35
BORGER         CLOUDY    36  29  75 N8        30.10F WCI  30
CANADIAN       CLOUDY    42  38  87 NW3       30.10F
DALHART        SUNNY     39  29  67 CALM      30.07F
DUMAS          CLOUDY    34  29  82 CALM      30.08F
GUYMON         NOT AVBL
HEREFORD       CLEAR     44  34  67 CALM      30.06F
PAMPA          CLOUDY    36  31  85 NW3       30.10S
PERRYTON       CLOUDY    37  37  97 N7        30.09F WCI  32
$$

SOUTHERN PANHANDLE/SOUTH PLAINS/ROLLING PLAINS

CITY           SKY/WX    TMP DP  RH WIND       PRES   REMARKS
LUBBOCK        PTSUNNY   55  30  38 N9        30.05F
SNYDER         MOSUNNY   58  32  37 CALM      30.08F
CHILDRESS      CLOUDY    44  38  79 N8        30.12F WCI  39
SEMINOLE       PTCLDY    59  28  31 CALM      30.07F
$$

PERMIAN BASIN

CITY           SKY/WX    TMP DP  RH WIND       PRES   REMARKS
MIDLAND        MOSUNNY   62  35  36 NW6       30.06F
ODESSA         SUNNY     61  33  35 CALM      30.07F
WINK           SUNNY     63  31  30 VRB5      30.05F
$$

FAR WEST/SOUTHWEST MOUNTAINS/TRANS PECOS

CITY           SKY/WX    TMP DP  RH WIND       PRES   REMARKS
ALPINE         CLOUDY    59  31  34 S10       30.15S
DRYDEN           N/A     61  44  53 SE3       30.05F
EL PASO        CLOUDY    53  36  52 SE6       30.08F
FORT STOCKTON  MOSUNNY   63  31  30 N5        30.06F
GUADALUPE PASS NOT AVBL
MARFA          PTSUNNY   57  27  30 S8        30.12F
PECOS          CLEAR     65  33  29 W8        30.05F
$$

DALLAS/FORT WORTH METROPLEX

CITY           SKY/WX    TMP DP  RH WIND       PRES   REMARKS
DFW AIRPORT    CLOUDY    49  44  83 NE5       30.10F
FTW MEACHAM    CLOUDY    50  45  83 NE7       30.10F
DAL-EXECUTIVE  CLOUDY    48  45  89 CALM      30.09F FOG
GRAND PRAIRIE  CLOUDY    48  46  93 N3        30.12F
ADDISON        NOT AVBL
MESQUITE       CLOUDY    46  45  93 CALM      30.12F FOG
LANCASTER      CLOUDY    48  45  90 CALM      30.12F FOG
$$

NORTH CENTRAL TEXAS

CITY           SKY/WX    TMP DP  RH WIND       PRES   REMARKS
SHRMAN/DENISON CLOUDY    45  44  99 CALM      30.13F FOG
GAINESVILLE    CLOUDY    46  43  90 E3        30.12F
BRIDGEPORT     CLOUDY    51  51 100 CALM      30.13S
DENTON         CLOUDY    49  44  83 N3        30.11F
WAXAHACHIE     CLOUDY    48  48  97 NW5       30.12F
GRANBURY       CLOUDY    53  47  81 CALM      30.11F
$$

WESTERN NORTH TEXAS

CITY           SKY/WX    TMP DP  RH WIND       PRES   REMARKS
WICHITA FALLS  CLOUDY    45  43  93 N8        30.10F FOG
VERNON         CLOUDY    45  39  78 N6        30.13F
BRECKENRIDGE   PTCLDY    58  44  60 N6        30.08F HAZE
COMANCHE       MOSUNNY   63  48  58 NE3       30.06F
$$

CENTRAL AND SOUTH CENTRAL TEXAS

CITY           SKY/WX    TMP DP  RH WIND       PRES   REMARKS
AUSTIN/BERGSTM CLOUDY    61  55  81 N6        30.05F
WACO           CLOUDY    52  48  86 N9        30.09F
HILLSBORO      CLOUDY    50  48  91 N6        30.10F
TEMPLE         CLOUDY    55  48  76 N6        30.07F
KILLEEN-GRAY   MOSUNNY   61  54  77 VRB3      30.06F
FORT HOOD      MOSUNNY   59  52  77 VRB7      30.05F
GEORGETOWN     CLOUDY    57  54  88 CALM      30.06F
LAGO VISTA     CLOUDY    58  56  95 CALM      30.06F
SAN MARCOS     CLOUDY    63  55  77 N8        30.06F
NEW BRAUNFELS  CLOUDY    65  57  75 NE7       30.04F
RANDOLPH AFB   CLOUDY    65  58  79 NE7       30.04F
SAN ANTONIO    CLOUDY    66  59  78 NE6       30.04F
STINSON        CLOUDY    67  59  75 NE7       30.02F
PLEASANTON     NOT AVBL
LA GRANGE      CLOUDY    62  57  85 N6        30.04F
GIDDINGS       CLOUDY    55  55  97 NE5       30.10F FOG
$$

EAST TEXAS

CITY           SKY/WX    TMP DP  RH WIND       PRES   REMARKS
PARIS          CLOUDY    45  41  87 NE6       30.14F
CLARKSVILLE    NOT AVBL
TYLER          CLOUDY    50  47  89 NE3       30.11F FOG
LONGVIEW       CLOUDY    51  46  83 E5        30.11F
PALESTINE      CLOUDY    52  51  95 N3        30.11F FOG
NACOGDOCHES    CLOUDY    54  48  82 CALM      30.10F
$$

TEXAS HILL COUNTRY AND EDWARDS PLATEAU

CITY           SKY/WX    TMP DP  RH WIND       PRES   REMARKS
LLANO          PTCLDY    68  55  64 CALM      30.07F
HORSESHOE BAY  CLOUDY   N/A N/A N/A CALM      30.07F
KERRVILLE      CLOUDY    64  59  84 CALM      30.05F
FREDERICKSBRG  MOSUNNY   66  56  72 CALM      30.04F
ROCKSPRINGS    MOCLDY    68  48  49 E3        30.06F
HONDO          CLOUDY    68  60  75 E3        30.05F
UVALDE         CLOUDY    60  54  80 CALM      30.03F
DEL RIO        CLOUDY    64  54  69 N5        30.02F HAZE
$$

SOUTHEAST TEXAS

CITY           SKY/WX    TMP DP  RH WIND       PRES   REMARKS
COLLEGE STN    CLOUDY    60  54  80 N7        30.06F
CALDWELL       CLOUDY    57  55  94 N3        30.10F
CROCKETT       MOCLDY    57  54  88 N6        30.11F
BRENHAM        CLOUDY    65  58  78 NW8       30.06F
HUNTSVILLE     CLOUDY    63  56  78 VRB5      30.06F
CONROE         CLOUDY    67  59  75 CALM      30.05F
HOUSTON BUSH   PTSUNNY   68  61  78 E3        30.03F
HOUSTON HOBBY  CLOUDY    69  64  84 E3        30.03F
PERLAND        CLOUDY    69  65  86 NE5       30.04F
WHARTON        CLOUDY    67  64  89 N5        30.03F
$$

THE UPPER TEXAS COAST

CITY           SKY/WX    TMP DP  RH WIND       PRES   REMARKS
ORANGE         CLOUDY    62  58  84 N7        30.06F
PORT ARTHUR    CLOUDY    63  59  87 NE7       30.05F FOG
GALVESTON      CLOUDY    66  65  96 N5        30.03F FOG
ANGLETON       CLOUDY    72  67  84 N5        30.01F
BAY CITY         N/A     74  69  87 N5        30.01F
$$

TEXAS COASTAL BEND, RIO GRANDE PLAINS DEEP SOUTH TEXAS

CITY           SKY/WX    TMP DP  RH WIND       PRES   REMARKS
VICTORIA       CLOUDY    68  64  87 NE7       30.02F FOG
BEEVILLE       CLOUDY    68  63  84 NE8       29.99F
ROCKPORT       MOSUNNY   76  67  73 SE9       29.98F
PORT ARANSAS   MOCLDY    71  69  90 SE6       29.98F
PORT LAVACA    NOT AVBL
CORPUS CHRISTI PTSUNNY   78  66  66 S14       29.97F
KINGSVILLE NAS PTSUNNY   77  69  76 SE9       29.97F
COTULLA        CLOUDY    68  60  75 N7        30.02F
LAREDO         CLOUDY    63  63 100 NW7       30.03F FOG
BROWNSVILLE    LGT RAIN  73  69  87 S7        29.97F
PORT ISABEL    LGT RAIN  75  67  76 S17       29.96F
HEBBRONVILLE   CLOUDY    63  62  96 NW5       30.00F
MCALLEN        CLOUDY    67  60  78 W9        29.98F HAZE
WESLACO        LGT RAIN  68  63  83 NW5       29.98F
FALFURRIAS     CLOUDY    72  69  90 E6        29.98F
EDINBURG       CLOUDY    73  64  74 W6        29.99F
$$


USA.gov is the U.S. government's official web portal to all federal, state and local government web resources and services.